Temperature
14 15 15 15 15 15 15 15 15 16 16 16 16 16 16 16 16 16 16 16 16 16 16 15 15 15 15 15 15 15 15 15 15 15 15 15 15 15 15 15 15 15 15
15 15 15 15 15 15 15 15 15 15 16 16 16 16 16 16 16 16 16 16 15 15 15 15 15 15 15 15 15 15 15 15 15 15 15 15 15 15 15 15 15 15 15
15 15 15 15 15 15 15 15 15 15 15 15 15 15 15 16 16 16 15 15 15 15 15 15 15 15 15 15 15 15 15 15 15 15 15 15 14 15 15 15 15 15 15
15 15 15 15 15 15 15 15 15 15 15 15 15 15 15 15 15 15 15 15 15 15 15 15 15 15 15 15 15 14 14 14 14 14 14 14 14 14 14 14 14 14 14
15 15 14 14 14 14 15 15 15 15 15 15 15 15 15 15 15 15 15 15 15 15 15 15 15 15 14 14 14 14 14 14 14 14 14 14 14 14 14 14 14 14 14
14 14 14 14 14 14 14 14 14 15 15 15 15 15 15 15 15 15 15 15 14 15 15 15 15 14 14 14 14 14 14 14 14 14 14 14 14 14 14 14 14 14 14
14 14 14 14 14 14 14 14 14 14 14 14 14 14 14 14 14 14 14 14 14 14 14 14 14 14 14 14 14 14 14 14 14 14 14 14 14 14 14 14 14 14 14
14 14 14 14 14 14 14 14 14 14 14 14 14 14 14 14 14 14 14 14 14 14 14 14 14 14 14 14 14 13 13 14 13 13 13 13 13 13 14 14 14 14 13
14 13 13 13 13 13 13 13 14 14 14 14 14 14 14 14 14 14 14 14 14 14 14 14 14 14 14 13 13 13 13 13 13 13 13 13 13 13 13 13 13 13 13
13 13 13 13 13 13 13 13 13 13 13 13 13 13 13 13 13 13 13 13 14 13 14 14 14 14 14 13 13 13 13 13 13 13 13 13 13 13 13 13 13 13 13
13 13 12 12 12 13 13 13 13 13 13 13 13 13 13 13 13 13 13 13 13 13 13 13 13 13 13 13 13 13 13 13 13 13 12 12 12 12 13 13 12 12 13
13 12 12 12 12 12 12 12 12 12 12 12 12 12 13 13 13 13 13 13 13 13 13 13 13 13 13 13 12 12 12 12 12 12 12 12 12 12 12 12 12 12 12
12 12 12 12 12 12 12 12 12 12 12 12 12 12 12 12 12 12 13 12 12 12 12 12 12 12 12 12 12 12 12 12 12 12 12 12 12 12 12 12 12 12 12
12 12 12 12 12 12 12 12 12 12 12 12 12 12 12 12 12 12 12 12 12 12 12 12 12 12 12 12 12 12 12 12 12 12 12 12 12 12 12 12 12 12 12
12 12 12 12 11 11 12 12 12 12 12 12 11 11 11 12 12 12 12 12 12 12 12 12 12 12 12 12 12 12 12 12 12 12 12 12 11 12 12 11 11 11 11
12 12 11 11 11 11 11 11 11 11 11 11 11 11 11 11 11 12 12 12 12 12 12 12 12 12 12 12 11 11 11 11 11 11 11 11 11 11 11 11 11 11 11
11 11 11 11 11 11 11 11 11 11 11 11 11 11 11 11 11 11 11 11 11 11 11 11 11 11 11 11 11 11 11 11 11 11 11 11 11 11 11 11 11 11 11
11 11 11 11 11 11 11 11 11 11 11 11 10 11 11 11 11 11 11 11 11 11 11 11 11 11 11 11 11 11 11 11 10 10 11 11 11 11 11 11 11 11 10
11 11 10 10 10 10 10 10 10 10 10 10 10 10 10 10 10 10 10 10 10 10 10 10 10 10 10 10 10 10 10 10 10 10 10 10 10 10 10 10 10 10 10
11 10 10 10 10 10 10 10 10 10 10 10 10 10 10 10 10 10 10 10 10 10 10 10 10 10 10 10 10 10 10 10 9 9 10 10 10 10 10 10 10 10 10
10 10 10 10 10 10 10 10 9 9 9 9 9 10 10 10 10 9 9 9 9 9 9 9 9 9 9 9 9 9 9 9 9 9 9 9 9 9 9 9 9 9 9
10 10 10 9 9 9 9 9 9 9 9 9 9 9 9 9 9 9 9 9 9 9 9 9 9 9 9 9 9 8 8 8 8 9 9 9 9 9 9 9 9 9 9
10 10 10 9 9 9 9 9 9 8 9 8 9 9 9 9 9 9 9 9 9 9 9 9 8 8 8 8 8 8 8 8 7 8 8 8 8 8 8 9 9 9 9
10 9 9 9 9 9 8 8 8 8 8 8 8 8 8 8 8 8 8 8 8 8 8 8 8 8 8 8 8 8 8 8 7 7 7 8 8 8 8 8 8 8 8
9 9 9 9 8 8 8 8 8 8 8 8 8 8 8 8 8 8 8 8 8 8 8 8 8 8 8 8 8 7 7 7 8 7 7 7 7 8 8 8 8 8 8
9 9 8 8 8 8 8 8 7 7 7 7 7 7 7 8 8 8 8 8 8 8 7 7 7 7 7 7 7 7 7 7 7 7 7 7 7 7 7 7 7 7 7
Wind_Speed
3 4 8 9 9 9 9 9 9 9 9 9 9 9 9 9 9 10 10 10 10 9 10 10 11 11 12 13 12 13 14 14 13 13 14 14 14 13 13 13 13 13 15
6 7 9 9 9 9 9 9 9 9 8 8 8 8 8 8 8 9 9 9 9 9 9 10 10 11 12 12 12 12 13 13 13 13 13 13 13 13 12 12 13 13 15
7 8 9 9 9 9 9 9 9 9 8 8 7 7 8 8 8 8 8 8 9 9 9 9 10 10 11 12 12 12 12 12 12 12 12 11 12 12 12 12 13 13 14
8 8 8 9 9 9 9 9 9 8 8 7 7 7 7 7 7 7 7 8 8 9 9 9 9 10 11 11 11 11 11 11 11 10 9 9 10 12 12 12 12 12 13
7 8 8 10 9 9 8 8 8 8 7 6 6 6 6 6 7 7 7 7 8 9 9 9 9 10 10 10 10 10 11 11 10 9 9 9 9 11 11 11 11 11 12
6 7 8 9 9 8 8 8 7 7 7 6 6 5 5 5 5 6 6 6 7 8 9 9 9 9 9 9 9 10 11 10 9 9 8 8 8 10 10 10 10 10 11
6 6 7 9 9 8 7 7 7 7 6 6 6 5 5 4 4 5 6 6 7 8 8 8 8 8 9 8 8 10 11 10 9 9 8 8 9 10 10 9 9 10 11
7 5 7 8 8 8 7 6 6 6 6 6 5 5 4 4 4 5 5 6 7 8 8 8 8 8 8 8 8 9 10 10 9 8 8 8 9 9 9 9 8 9 10
6 5 4 5 6 7 6 6 5 5 5 5 5 4 4 4 4 4 5 6 7 7 8 7 8 8 8 8 8 8 9 10 9 8 8 8 8 8 9 9 9 10 10
5 4 3 3 5 5 5 5 5 5 5 5 4 4 4 4 3 4 4 5 7 8 8 7 7 7 7 7 7 8 9 9 9 8 7 7 8 8 8 9 9 10 10
3 3 3 3 3 4 5 5 5 5 5 4 4 4 4 3 3 3 3 5 7 7 8 7 7 7 7 7 7 7 8 7 8 7 7 7 8 8 8 8 9 10 10
4 3 3 3 2 3 4 4 4 4 4 4 3 3 3 2 2 2 3 4 6 7 7 7 7 7 6 6 6 6 6 7 7 6 6 8 8 7 8 8 9 9 10
5 4 3 3 2 3 2 3 3 3 3 3 3 4 3 3 2 2 2 3 4 5 5 5 5 5 5 5 5 5 6 6 6 6 7 8 8 8 8 8 8 9 10
4 4 3 3 2 3 3 3 3 3 2 2 3 4 4 2 2 1 1 2 3 4 4 3 4 4 5 5 5 5 4 5 5 6 7 7 7 8 8 8 9 9 9
5 4 4 3 3 3 3 2 3 3 2 3 3 4 4 3 2 1 1 2 2 4 4 3 4 4 4 4 4 4 4 4 5 5 5 6 7 8 8 8 10 10 9
6 5 5 4 4 4 4 3 3 3 3 3 3 4 5 4 3 2 2 2 2 3 4 4 4 4 3 3 3 4 4 5 5 5 5 6 6 7 8 8 9 9 9
6 5 5 5 5 5 4 4 3 3 3 2 2 4 4 4 4 3 2 2 2 3 4 4 3 4 3 2 2 2 3 4 5 5 6 6 5 5 7 8 9 8 8
6 5 5 5 4 4 4 3 3 3 3 2 3 3 4 4 5 3 2 2 3 3 3 3 3 3 3 2 2 2 2 3 4 5 5 6 5 5 5 7 8 8 7
6 6 5 4 4 4 3 3 3 3 2 2 2 3 3 4 5 4 3 2 3 3 3 3 3 3 3 2 2 2 2 2 2 4 4 5 5 5 6 6 6 6 6
5 5 5 4 4 3 2 2 2 2 1 1 2 3 3 4 4 4 3 3 3 3 3 3 3 3 3 3 3 2 2 1 2 2 2 3 4 5 6 5 5 4 5
4 4 5 4 4 3 2 2 2 2 2 1 1 3 4 4 4 4 3 3 4 4 4 4 3 4 2 3 3 2 2 2 1 1 2 2 2 3 5 5 5 4 3
4 4 5 5 4 4 3 3 2 2 2 2 1 1 3 4 4 4 4 4 4 4 5 5 4 2 2 2 3 3 1 1 1 1 1 1 1 2 3 4 5 5 4
4 4 4 4 4 4 4 2 2 1 1 0 1 1 2 3 4 4 5 5 4 5 5 6 6 5 4 2 2 3 3 3 1 1 1 1 1 1 2 2 4 5 6
4 3 3 3 3 3 4 4 4 3 2 3 2 2 2 2 3 4 5 5 5 4 5 6 5 4 6 4 2 1 1 3 2 1 1 1 1 2 3 3 3 5 6
3 3 3 3 3 2 3 4 4 2 2 1 1 2 2 1 2 3 4 4 4 4 4 5 5 5 5 5 3 2 1 1 1 2 2 2 2 2 3 3 4 5 6
3 3 3 3 2 2 3 3 3 3 2 2 2 2 2 1 1 2 3 4 4 4 5 5 5 5 5 4 4 3 3 3 2 2 2 2 3 2 2 2 3 4 6
Wind_Direction
176 172 147 136 134 130 123 117 116 113 109 104 102 102 105 109 111 110 112 115 113 115 117 115 114 112 111 108 105 104 102 99 98 95 94 96 97 99 97 96 94 93 95
159 157 144 137 133 131 126 120 116 117 113 109 107 109 112 116 119 118 118 119 117 116 118 118 118 117 116 115 112 110 107 104 102 96 92 94 97 99 99 101 100 100 98
139 142 138 134 133 129 127 123 119 118 117 114 112 111 114 119 124 126 124 123 125 121 119 120 121 121 119 119 118 115 112 109 106 101 94 95 101 104 104 103 103 103 101
136 139 140 137 134 129 127 127 124 121 118 117 119 116 115 121 125 127 126 126 126 124 123 125 126 126 125 123 121 118 116 116 111 107 100 101 106 110 108 106 104 105 104
126 134 142 139 136 132 129 131 128 126 123 120 120 120 119 122 126 127 128 127 129 128 128 128 131 129 127 125 124 121 119 117 112 109 104 104 109 114 111 107 105 106 108
123 131 142 142 139 136 134 132 133 131 130 126 121 123 125 127 131 130 132 134 134 133 133 131 134 135 131 128 127 126 123 117 113 110 111 106 109 116 114 110 106 108 109
128 125 138 141 138 138 138 134 136 137 137 135 130 128 132 133 140 140 136 141 140 138 139 136 135 137 139 135 131 130 124 117 116 113 115 112 114 119 119 117 113 113 111
134 126 137 142 140 140 140 139 138 144 144 143 139 135 132 136 140 143 148 149 146 143 141 140 140 142 142 140 135 131 126 121 121 120 119 118 121 124 124 122 121 122 117
117 118 128 140 143 143 144 147 147 147 146 144 142 137 129 128 133 146 151 155 154 151 145 145 145 146 145 139 135 134 130 127 125 128 128 128 128 132 132 126 125 124 119
111 117 116 129 142 144 145 149 147 144 143 139 133 127 124 121 128 143 153 161 160 157 152 152 151 148 147 139 131 131 128 126 129 135 135 141 142 139 138 134 133 129 124
128 133 125 115 134 147 153 156 146 145 145 141 137 130 124 119 133 148 160 163 166 164 160 156 158 154 146 138 132 133 129 126 132 139 146 152 152 147 143 138 138 135 130
170 167 158 147 144 150 158 146 146 148 144 138 134 132 123 120 140 157 167 169 168 167 164 162 162 157 146 136 135 133 130 133 135 143 156 161 161 156 153 148 145 140 135
183 179 171 160 157 164 143 143 144 142 142 142 140 140 132 119 115 129 137 158 164 160 159 163 153 150 147 140 134 135 136 138 144 154 165 165 166 164 161 157 151 143 139
182 192 186 165 166 178 155 152 150 141 139 145 153 151 137 114 104 116 130 149 150 152 150 149 144 146 144 144 142 137 139 138 146 152 163 167 173 171 166 166 159 151 146
188 198 192 181 189 177 157 163 155 156 160 172 165 166 156 145 154 144 147 152 158 155 153 150 145 142 141 142 145 142 138 143 145 146 153 163 172 175 170 167 162 158 156
195 200 196 194 198 175 165 169 173 166 168 167 171 175 164 154 156 160 165 160 165 166 165 160 157 148 148 143 136 141 150 153 152 150 149 154 156 163 170 169 164 161 161
196 195 199 199 186 174 171 173 169 170 167 167 180 180 171 165 162 161 173 176 178 167 154 143 139 138 138 136 140 131 139 151 147 145 144 144 145 155 167 173 166 166 167
186 191 203 194 179 177 172 172 170 168 167 171 181 183 180 175 168 159 171 185 177 155 143 150 155 155 155 150 147 148 120 136 139 143 138 139 141 148 162 166 164 170 172
186 190 193 177 172 172 168 163 164 160 163 167 174 180 187 185 177 165 170 177 165 149 149 162 163 161 158 145 133 113 104 106 113 130 134 144 146 145 144 147 161 170 179
184 186 180 171 170 161 145 129 135 140 163 171 181 192 190 187 181 169 164 167 158 155 157 150 150 148 146 140 116 84 62 73 99 121 135 143 147 147 144 140 144 167 182
175 176 175 170 173 159 156 163 168 188 193 204 213 203 195 189 184 172 169 169 168 171 165 153 143 142 130 124 105 80 35 42 70 82 111 122 137 153 155 152 154 165 181
175 177 173 175 177 178 178 183 181 177 197 209 214 217 199 188 187 179 170 178 176 169 161 157 149 147 150 144 130 128 109 359 357 2 66 139 147 148 162 173 175 179 187
174 178 178 181 181 181 167 140 107 84 72 182 224 232 221 196 192 184 176 175 179 175 176 174 173 164 172 185 153 150 156 196 260 328 299 206 174 193 193 188 196 199 199
183 176 169 172 174 172 155 156 165 181 201 221 216 219 236 201 187 188 180 177 177 179 179 181 184 177 171 178 187 183 148 154 159 192 311 303 242 225 215 210 206 215 211
164 158 161 154 154 154 156 166 176 193 208 214 209 205 214 217 189 183 177 177 180 185 187 185 183 182 183 182 178 169 135 105 145 164 225 257 264 244 226 216 207 210 218
134 138 142 146 157 162 165 170 181 189 193 196 207 206 208 212 203 192 184 182 184 186 192 194 189 187 189 185 187 184 172 172 188 178 201 233 246 261 253 235 221 210 213
Height
1521 1522 1524 1525 1526 1527 1528 1529 1529 1530 1531 1531 1532 1532 1533 1534 1534 1535 1535 1536 1536 1537 1537 1538 1538 1539 1539 1540 1540 1541 1541 1542 1542 1543 1543 1544 1544 1545 1545 1546 1546 1546 1547
1520 1522 1523 1524 1525 1526 1527 1528 1529 1530 1531 1531 1532 1532 1533 1534 1534 1535 1535 1536 1537 1537 1538 1538 1539 1539 1540 1540 1541 1541 1542 1543 1543 1544 1544 1545 1545 1546 1547 1547 1548 1548 1548
1519 1521 1522 1524 1525 1526 1527 1528 1528 1529 1530 1531 1531 1532 1533 1533 1534 1535 1535 1536 1537 1537 1538 1538 1539 1539 1540 1541 1541 1542 1543 1543 1544 1544 1545 1546 1546 1547 1548 1548 1549 1549 1550
1519 1520 1522 1523 1524 1525 1526 1527 1528 1529 1529 1530 1531 1532 1532 1533 1534 1534 1535 1536 1536 1537 1538 1538 1539 1540 1540 1541 1542 1542 1543 1544 1544 1545 1546 1547 1547 1548 1549 1550 1550 1551 1551
1518 1520 1521 1522 1523 1524 1525 1526 1527 1528 1529 1530 1530 1531 1532 1532 1533 1534 1535 1535 1536 1537 1537 1538 1539 1540 1540 1541 1542 1542 1543 1544 1545 1546 1546 1547 1548 1549 1550 1550 1551 1552 1552
1517 1519 1520 1521 1522 1523 1524 1525 1526 1527 1528 1529 1529 1530 1531 1532 1532 1533 1534 1535 1536 1536 1537 1538 1539 1540 1541 1541 1542 1543 1543 1544 1545 1546 1547 1548 1548 1549 1550 1551 1552 1552 1553
1516 1518 1519 1520 1521 1522 1523 1524 1524 1525 1527 1528 1528 1529 1530 1530 1531 1532 1533 1534 1535 1536 1537 1537 1538 1540 1540 1541 1542 1543 1543 1544 1545 1546 1547 1548 1549 1550 1550 1551 1552 1553 1553
1515 1516 1518 1519 1520 1520 1521 1522 1523 1524 1525 1526 1527 1528 1529 1529 1530 1531 1532 1533 1534 1535 1536 1537 1538 1539 1540 1541 1542 1542 1543 1544 1545 1546 1547 1548 1549 1550 1551 1551 1552 1553 1554
1514 1515 1516 1517 1518 1519 1520 1521 1521 1522 1523 1524 1525 1526 1527 1528 1529 1530 1531 1531 1532 1533 1534 1536 1537 1538 1539 1540 1541 1542 1543 1544 1545 1546 1547 1548 1549 1550 1551 1551 1552 1553 1554
1513 1514 1514 1516 1517 1517 1518 1519 1520 1521 1522 1523 1524 1525 1526 1526 1527 1528 1529 1530 1531 1532 1533 1534 1536 1537 1538 1539 1541 1542 1543 1544 1545 1546 1547 1548 1549 1550 1551 1551 1552 1553 1554
1511 1512 1513 1514 1515 1516 1517 1517 1518 1519 1520 1521 1522 1523 1524 1525 1526 1526 1527 1528 1529 1530 1532 1533 1534 1536 1537 1538 1540 1541 1542 1543 1544 1545 1546 1548 1549 1549 1550 1551 1552 1552 1553
1509 1510 1511 1512 1513 1514 1514 1515 1517 1517 1518 1519 1520 1521 1522 1523 1524 1525 1526 1527 1528 1529 1530 1531 1533 1534 1536 1537 1538 1540 1541 1542 1543 1544 1546 1547 1548 1549 1549 1550 1551 1552 1553
1507 1508 1509 1510 1510 1511 1512 1513 1514 1515 1516 1517 1518 1519 1520 1521 1522 1523 1524 1525 1526 1527 1528 1529 1531 1532 1534 1535 1537 1538 1540 1541 1542 1543 1544 1546 1547 1548 1548 1549 1550 1551 1552
1505 1506 1507 1507 1508 1509 1510 1511 1512 1513 1513 1514 1515 1516 1517 1518 1520 1521 1522 1523 1524 1525 1526 1527 1528 1530 1532 1534 1535 1537 1538 1539 1540 1542 1543 1544 1545 1546 1547 1548 1549 1550 1551
1502 1503 1504 1505 1505 1506 1507 1508 1509 1510 1511 1512 1513 1514 1515 1516 1517 1518 1519 1520 1522 1523 1524 1525 1526 1528 1530 1532 1534 1535 1536 1538 1539 1540 1541 1543 1544 1545 1546 1546 1547 1549 1549
1499 1500 1501 1502 1503 1504 1505 1506 1507 1508 1509 1510 1511 1512 1513 1514 1515 1516 1517 1518 1519 1521 1522 1523 1525 1526 1528 1530 1532 1533 1535 1536 1537 1538 1540 1541 1542 1543 1544 1545 1546 1547 1548
1496 1497 1498 1499 1500 1501 1502 1503 1504 1505 1506 1507 1508 1509 1510 1512 1513 1514 1515 1516 1517 1518 1520 1521 1523 1524 1526 1528 1529 1531 1532 1534 1535 1536 1538 1539 1540 1541 1542 1543 1545 1546 1547
1494 1495 1495 1496 1497 1499 1500 1501 1502 1503 1504 1505 1506 1507 1508 1509 1510 1511 1512 1513 1515 1516 1517 1518 1520 1522 1524 1525 1527 1529 1530 1531 1533 1534 1535 1536 1537 1539 1540 1541 1543 1544 1545
1492 1492 1493 1494 1495 1496 1497 1498 1499 1500 1501 1502 1503 1504 1505 1506 1508 1509 1510 1511 1512 1513 1514 1516 1517 1519 1521 1523 1525 1526 1528 1529 1530 1531 1533 1534 1535 1536 1537 1539 1540 1541 1542
1489 1490 1490 1491 1492 1494 1494 1495 1496 1498 1499 1500 1501 1502 1503 1504 1505 1506 1507 1508 1509 1511 1512 1513 1515 1517 1518 1520 1522 1523 1525 1527 1528 1529 1530 1531 1533 1534 1535 1536 1537 1539 1540
1486 1486 1487 1489 1490 1491 1491 1492 1493 1494 1496 1497 1498 1499 1500 1501 1502 1503 1504 1505 1507 1508 1509 1511 1512 1514 1516 1518 1519 1521 1523 1524 1525 1526 1528 1529 1530 1531 1532 1533 1535 1536 1537
1482 1483 1484 1486 1487 1488 1489 1490 1491 1492 1493 1494 1495 1496 1497 1498 1499 1500 1501 1502 1504 1505 1506 1508 1510 1511 1514 1515 1517 1518 1520 1522 1522 1523 1524 1525 1527 1528 1529 1531 1532 1533 1534
1479 1480 1481 1483 1484 1485 1487 1487 1488 1489 1490 1492 1492 1493 1494 1495 1496 1497 1499 1500 1501 1502 1503 1505 1507 1509 1510 1512 1514 1516 1517 1517 1519 1520 1521 1523 1524 1525 1526 1527 1528 1530 1531
1476 1478 1479 1480 1482 1483 1484 1485 1486 1486 1487 1488 1489 1490 1491 1492 1493 1494 1496 1497 1498 1499 1500 1502 1504 1506 1508 1509 1511 1513 1515 1515 1517 1517 1518 1519 1521 1522 1523 1524 1525 1526 1528
1474 1475 1477 1478 1479 1480 1481 1482 1483 1484 1485 1486 1486 1487 1488 1489 1490 1491 1493 1494 1495 1496 1498 1499 1501 1502 1504 1506 1507 1509 1511 1512 1513 1514 1515 1516 1517 1518 1520 1521 1522 1523 1524
1472 1473 1474 1475 1476 1478 1478 1480 1481 1481 1482 1483 1483 1484 1485 1486 1487 1488 1489 1491 1492 1493 1495 1496 1497 1499 1500 1502 1504 1506 1507 1508 1510 1511 1512 1512 1513 1514 1516 1517 1518 1519 1520